Location: Headcorn
(51.1500°N, 0.6167°E)
Time: 14:16:15
(UTC+00:00)

Daily predictions for brighter satellites

Satellite Brightness Start Highest point End
(mag) Time Altitude Azimuth Time Altitude Azimuth Time Altitude Azimuth
Cosmos 1933 Rocket 4.0 20:56:54 10° NNW 21:01:17 63° W 21:05:40 10° S
Cosmos 1954 Rocket 4.0 20:58:40 10° SSW 21:03:57 82° ESE 21:09:16 10° NNE
Resurs 01 Rocket 4.2 21:01:14 10° SW 21:04:10 17° W 21:07:06 10° NW
CZ-4C R/B 3.9 21:00:33 10° N 21:04:41 68° WNW 21:08:47 10° SSW
Landsat 4 3.5 21:01:21 10° SSE 21:04:46 68° ENE 21:08:12 10° N
COSMOS 2406 3.5 20:59:31 10° SW 21:05:17 78° WNW 21:11:04 10° NNE
Cosmos 1980 Rocket 4.0 21:00:51 10° NW 21:05:29 26° WSW 21:10:06 10° SSW
Cosmos 2322 Rocket 2.4 21:00:59 10° NNW 21:06:40 66° ENE 21:12:18 10° SE
Cosmos 1356 Rocket 4.5 21:06:41 10° SSE 21:10:19 30° E 21:14:00 10° NNE
SeaSat 1 3.1 21:08:44 10° SSE 21:13:30 51° WSW 21:18:19 10° NW
Meteor 1-13 Rocket 4.3 21:08:01 10° S 21:13:49 83° ESE 21:19:32 10° NNE
Cosmos 676 Rocket 4.0 21:08:46 10° SSW 21:14:05 82° ESE 21:19:26 10° NNE
Cosmos 2278 4.1 21:11:09 10° NW 21:16:48 61° WSW 21:22:24 10° SSE
Cosmos 1707 3.4 21:13:27 10° SSW 21:16:59 51° WNW 21:20:32 10° N
MOS 1 Rocket 3.7 21:15:07 10° SSE 21:20:32 84° WSW 21:25:52 10° NNW
USA 234 3.2 21:16:56 10° ENE 21:23:29 69° SE 21:29:59 10° SW
Cosmos 1455 4.0 21:24:22 10° NNE 21:26:49 18° ENE 21:29:16 10° ESE
Cosmos 1400 Rocket 2.7 21:23:09 10° S 21:27:01 74° E 21:30:53 10° NNE
COSMOS 2428 4.3 21:22:20 10° NNW 21:27:10 27° NE 21:32:00 10° E
SL-4 R/B 1.9 21:23:24 10° W 21:27:16 87° N 21:31:24 10° E
Meteor 2-10 Rocket 3.7 21:25:03 10° NNW 21:30:44 89° W 21:36:09 10° S
Cosmos 2219 Rocket 2.9 21:28:26 10° NNW 21:33:57 48° NE 21:39:26 10° SE
Landsat 5 3.7 21:30:12 10° NNE 21:34:04 47° E 21:38:01 10° S
Cosmos 841 Rocket 3.9 21:30:54 10° NNW 21:36:06 61° WSW 21:41:16 10° S
Cosmos 1707 Rocket 3.8 21:31:51 10° S 21:36:10 54° E 21:40:31 10° NNE
ERS-1 Rocket 4.0 21:33:33 10° S 21:38:18 42° W 21:43:05 10° NNW
ATLAS CENTAUR R/B 1.9 21:35:38 10° S 21:38:41 29° ESE 21:41:49 10° ENE
Cosmos 1315 Rocket 4.2 21:39:54 13° SE 21:42:30 24° E 21:45:44 10° NE
SJ 16-02 2.3 21:39:28 13° SSE 21:42:40 29° ESE 21:46:24 10° NE
ARIANE 5 R/B 3.7 21:39:26 11° SE 21:43:05 33° ENE 21:46:58 10° N
Meteor 1-4 Rocket 3.5 21:41:42 15° SE 21:43:22 24° E 21:45:51 10° NE
SL-27 R/B 2.7 21:41:51 15° SSE 21:43:43 32° ESE 21:46:16 10° NE
Cosmos 1953 3.4 21:41:12 10° N 21:44:40 31° ENE 21:47:31 13° SE
Okean 3 3.9 21:41:42 13° SSE 21:45:10 43° E 21:49:08 10° NNE
Spot 2 Rocket 4.3 21:40:58 10° S 21:45:51 48° W 21:50:47 10° NNW
Aureole 3 3.8 21:49:38 14° SSE 21:52:51 53° E 21:57:32 10° NNE
Cosmos 1300 2.9 21:50:24 10° NNW 21:53:55 58° W 21:57:03 12° S
Cosmos 1733 Rocket 3.2 21:51:11 10° NNW 21:55:36 76° W 21:59:30 13° S
Spot 1 4.2 21:51:29 10° NNE 21:55:58 82° ESE 22:00:41 10° SSW
Meteor 1-23 Rocket 4.4 21:51:36 10° SSW 21:57:16 76° WNW 22:03:02 10° N
Cosmos 2360 Rocket 2.3 21:52:06 10° NNW 21:57:47 73° WSW 22:02:32 15° SSE
Cosmos 1655 Rocket 4.2 21:52:50 10° SSW 21:59:14 83° W 22:05:41 10° N
Cosmos 839 Rocket 4.2 21:54:06 10° NW 22:01:20 88° NE 22:06:44 14° SE
GP-B 4.0 21:57:26 10° NNE 22:01:29 34° E 22:04:27 16° SE
H-2A R/B 3.8 21:59:14 12° ESE 22:02:36 30° ENE 22:06:20 10° N
ATLAS 2AS CENTAUR R/B 2.8 21:59:12 10° NW 22:06:03 70° SW 22:11:32 16° SSE
Cosmos 2333 Rocket 2.4 22:00:43 10° NW 22:06:27 69° WSW 22:11:07 16° SSE
SL-16 R/B 3.4 22:01:34 10° NW 22:06:38 34° WSW 22:11:40 10° S
Cosmos 1908 Rocket 3.9 22:03:44 10° N 22:08:01 51° ENE 22:11:05 18° SSE
SL-14 R/B 3.7 22:05:17 10° SSW 22:09:00 58° WNW 22:12:47 10° N
Ariane Rocket 4.4 22:06:05 10° SSW 22:10:36 32° W 22:15:11 10° NNW
Cosmos 2228 Rocket 3.5 22:06:14 10° SSW 22:10:45 65° WNW 22:15:20 10° N
MetOp-A 4.4 22:07:04 13° S 22:11:41 61° WSW 22:16:55 10° NNW
Cosmos 807 4.4 22:08:48 12° SSW 22:11:53 69° W 22:14:52 10° N
RESURS DK-1 3.7 22:08:23 10° NW 22:11:58 30° WSW 22:14:58 13° SSW
BREEZE-M DEB (TANK) 3.0 22:09:51 10° WSW 22:12:28 63° SSE 22:18:51 10° E
Cosmos 2082 Rocket 4.4 22:08:48 10° W 22:13:41 28° NW 22:18:34 10° NNE
Okean 1-7 3.2 22:13:21 17° S 22:16:32 58° E 22:20:48 10° NNE
Cosmos 1346 Rocket 3.8 22:14:39 10° NNW 22:18:17 39° W 22:21:26 13° SSW
BREEZE-M DEB (TANK) 2.4 22:17:03 10° W 22:22:43 70° N 22:25:01 10° ENE
Cosmos 1833 4.2 22:17:15 10° SSW 22:22:50 70° ESE 22:28:26 10° NNE
BlueWalker 3 4.1 22:24:28 11° ESE 22:24:28 11° ESE 22:24:51 10° ESE
Cosmos 1408 4.3 22:22:39 13° ESE 22:23:28 14° E 22:25:03 10° NE
Cosmos 1850 Rocket 4.3 22:18:17 10° SSW 22:23:31 70° WNW 22:28:44 10° NNE
Terra 3.9 22:20:20 10° SW 22:23:43 19° W 22:27:08 10° NW
Cosmos 1242 Rocket 3.1 22:23:20 23° SE 22:24:08 28° E 22:26:35 10° NE
MINOTAUR 4 R/B 4.4 22:22:26 10° NNE 22:25:08 34° E 22:26:11 25° SE
Cosmos 1570 Rocket 4.2 22:25:08 10° NNW 22:30:29 67° ENE 22:34:28 18° SE
Cosmos 2237 Rocket 3.6 22:26:03 10° NNW 22:31:07 32° NE 22:36:08 10° ESE
Cosmos 1300 Rocket 4.3 22:27:05 10° N 22:31:10 40° ENE 22:33:56 18° SE
Cosmos 2322 3.9 22:26:03 10° NNW 22:31:45 72° ENE 22:36:10 17° SE
USA 281 3.3 22:28:55 17° SSE 22:34:07 78° WSW 22:40:45 10° NNW
ALOS 2 3.6 22:32:43 16° SE 22:35:48 38° ENE 22:39:52 10° N
CZ-2C R/B 3.6 22:35:56 10° NNE 22:40:23 80° ESE 22:43:36 18° S
CZ-4C R/B 3.5 22:42:24 15° SE 22:43:35 16° ESE 22:46:40 10° ENE
Cosmos 968 Rocket 3.8 22:40:25 10° SW 22:45:32 65° WNW 22:50:44 10° NNE
Cosmos 2322 Rocket 3.7 22:45:41 10° NW 22:50:15 26° WSW 22:54:24 12° SSW
Cosmos 1703 Rocket 3.5 22:48:43 20° S 22:51:45 86° E 22:56:14 10° NNE
Spot 4 3.9 22:49:10 21° SSE 22:52:18 75° ENE 22:57:08 10° NNW
NOSS 0 Rocket 4.2 22:47:18 10° NNW 22:53:31 65° NE 22:58:44 15° SE
SL-08 R/B 4.5 22:48:53 15° SSW 22:53:58 83° W 23:00:07 10° N
Cosmos 158 Rocket 4.1 22:49:15 10° NNW 22:54:36 74° ENE 22:58:13 20° SSE
Okean 2 3.8 22:54:53 16° SSW 22:57:54 55° WNW 23:01:53 10° N
EXPRESS MD2 1.7 22:57:11 10° W 22:59:22 63° S 22:59:33 59° SSE
PSLV R/B 3.8 22:55:54 10° NNE 22:59:56 87° WNW 23:02:28 22° SSW
Cosmos 2242 Rocket 4.3 22:57:30 23° SSE 22:59:56 43° E 23:04:16 10° NNE
Cosmos 2297 Rocket 3.6 22:57:55 17° SE 23:00:25 22° ESE 23:04:41 10° NE
Cosmos 1455 2.9 22:58:08 10° NNW 23:01:26 39° W 23:03:18 21° SSW
Cosmos 2208 Rocket 4.0 22:57:18 10° NNW 23:02:33 89° ENE 23:05:55 22° SSE
SL-4 R/B 1.9 23:02:06 10° W 23:06:07 84° S 23:10:23 10° ESE
NOSS 5 (C) 4.1 23:03:15 10° NW 23:06:25 73° SW 23:07:42 32° SSE
USA 234 3.8 23:00:03 10° ENE 23:06:30 64° NNW 23:12:58 10° W
Cosmos 1932 4.4 23:00:14 10° SW 23:06:35 87° SE 23:12:53 10° NE
Cosmos 773 Rocket 4.5 23:01:36 10° NNW 23:06:39 54° ENE 23:10:31 17° SE
SAR-Lupe-3 4.5 23:06:34 29° SSE 23:08:17 89° WSW 23:11:54 10° NNW
COSMOS 2428 2.7 23:06:18 10° NNW 23:12:01 76° WSW 23:15:44 22° SSE
Cosmos 2098 Rocket 4.5 23:07:16 10° N 23:13:44 56° ENE 23:18:27 19° SSE
CENTAUR R/B 4.3 23:13:01 10° ESE 23:15:01 12° E 23:17:08 10° E
COSMOS 2455 3.4 23:12:16 22° S 23:15:34 40° ESE 23:21:09 10° NE
Meteor 1-4 Rocket 4.4 23:13:55 10° WSW 23:16:11 20° WNW 23:18:30 10° NNW
ATLAS CENTAUR R/B 2.5 23:12:55 10° WSW 23:16:14 37° NW 23:19:40 10° NNE
GENESIS II 4.1 23:14:53 29° S 23:16:25 53° SE 23:20:00 10° NE
Cosmos 2219 Rocket 3.1 23:12:38 10° NW 23:17:47 36° WSW 23:21:08 19° SSW
Cosmos 1315 Rocket 4.1 23:15:10 12° SW 23:18:29 35° WNW 23:22:12 10° N
ARIANE 5 R/B 3.8 23:16:54 18° SSW 23:19:28 32° W 23:23:24 10° NNW
Cosmos 1953 3.9 23:17:13 10° NW 23:20:22 25° W 23:22:38 15° SW
SJ 16-02 2.6 23:16:53 10° SW 23:20:54 37° WNW 23:24:58 10° N
PSLV R/B 4.0 23:27:03 10° NNE 23:31:10 47° E 23:33:07 27° SSE
Cosmos 304 Rocket 4.3 23:31:07 25° SSE 23:33:24 43° ESE 23:37:54 10° NE
Cosmos 1745 Rocket 4.2 23:30:01 18° SSW 23:34:52 69° WNW 23:41:15 10° N
H-2A R/B 3.5 23:35:13 21° SSW 23:37:27 36° W 23:41:26 10° NNW
Okean 1 Rocket 4.3 23:36:11 10° N 23:40:08 33° ENE 23:43:06 16° SE
Cosmos 2360 Rocket 4.3 23:38:07 10° WNW 23:40:46 13° W 23:43:24 10° SW
Cosmos 1486 Rocket 3.9 23:41:55 24° SSW 23:45:08 77° ESE 23:50:21 10° NNE
Cosmos 2181 Rocket 4.1 23:39:08 10° N 23:45:23 75° ENE 23:49:34 22° SSE
Cosmos 1825 3.4 23:47:13 21° SE 23:48:25 27° E 23:51:22 10° NNE
Cosmos 2333 Rocket 4.4 23:47:14 10° WNW 23:49:40 13° W 23:52:05 10° WSW
ATLAS 2AS CENTAUR R/B 4.4 23:51:44 10° WNW 23:55:43 17° WSW 23:58:56 12° SW
Cosmos 1408 3.3 23:54:41 23° WSW 23:55:54 33° WNW 23:58:40 10° N
